Content
SEND FEEDBACK

Daily
Averages
Monthly
Summary
Switzerland

GENEVA, SWITZERLAND


Home > Europe > Switzerland
Elevation: 415 meters     Latitude: 46 15N     Longitude: 006 08E

WEATHER
 
SELECT A DAY
Number of Records: 305,866;   Date Range: 7/1/96 - 8/12/14
 
SHARE

PRINT THIS DATA

[ ← Previous Day ]
WEATHER ALMANAC - 16 JANUARY, 2013
[ Next Day → ]
[ °F ]   °C
Weather ElementAverageHighLow
Temperature-2.8 °C1 °C (11:50 am)-7 °C (5:20 am)
Dewpoint-6.9 °C-2 °C (12:20 am)-9.4 °C (8:00 pm)
Humidity71.9 %93 % (12:20 am)41 % (2:00 pm)
Barometer1006.8 hPa1011.5 hPa (3:00 am)1003 hPa (2:20 pm)
Wind Speed5.1 km/h13 km/h (10:20 pm)
Weather ElementAverage
Visibility12.2 km
Wind DirectionESE (103.2 °)

Weather ElementTotal
Precipitation---
Heating Degree Days21.3 (Base 18.3)
Averaged from 66 records on 16 January, 2013
WEATHER CONDITIONS BREAKOUT
WIND DIRECTION BREAKOUT
WEATHER BY HOUR - 16 JANUARY, 2013
[ °F ]   °C
Local TimeTemperatureDewpointHumidityBarometerVisibilityWind DirectionWind SpeedGust SpeedPrecipitationEventsConditions
12:20 AM-1 °C-2 °C93 %1008.1 hPa6.9 kmVariable5.6 km/hSnowLight Snow Showers
12:50 AM-1 °C-2 °C93 %1008.1 hPa10 kmVariable1.9 km/hSnowLight Snow Showers
1:00 AM-1.1 °C-2.8 °C85 %1010.5 hPa25.7 kmSouth (170°)3.7 km/hSnowLight Snow
1:20 AM-1 °C-2 °C93 %1008.1 hPa10 kmSSW (210°)5.6 km/hMostly Cloudy
1:50 AM-1 °C-3 °C86 %1008.1 hPa10 kmVariable3.7 km/hMostly Cloudy
2:00 AM-1.7 °C-3.3 °C82 %1010.8 hPaNNW (340°)5.6 km/h
2:50 AM-3 °C-6 °C80 %1008.1 hPa10 kmWNW (300°)5.6 km/hPartly Cloudy
3:00 AM-3.3 °C-6.7 °C71 %1011.5 hPaNNW (340°)5.6 km/h
3:20 AM-4 °C-7 °C80 %1008.1 hPa10 kmVariable5.6 km/hPartly Cloudy
3:50 AM-4 °C-7 °C80 %1008.1 hPa10 kmVariable5.6 km/hPartly Cloudy
4:20 AM-5 °C-7 °C86 %1008.1 hPa10 kmVariable1.9 km/hPartly Cloudy
4:50 AM-5 °C-7 °C86 %1008.1 hPa10 kmSouth (170°)5.6 km/hPartly Cloudy
5:00 AM-6.1 °C-8.3 °C80 %1011.2 hPaENE (70°)5.6 km/h
5:20 AM-7 °C-8 °C93 %1007.1 hPa10 kmVariable3.7 km/hPartly Cloudy
5:50 AM-7 °C-9 °C86 %1007.1 hPa10 kmVariable3.7 km/hPartly Cloudy
6:00 AM-6.7 °C-8.3 °C83 %1010.8 hPaWSW (240°)3.7 km/h
6:21 AM-7 °C-8 °C93 %1007.1 hPa10 kmVariable3.7 km/hScattered Clouds
6:50 AM-6 °C-7 °C93 %1007.1 hPa10 kmVariable3.7 km/hScattered Clouds
7:00 AM-5 °C-7.8 °C74 %1010.5 hPa40.2 kmNorth (350°)3.7 km/hPartly Cloudy
7:20 AM-5 °C-7 °C86 %1007.1 hPa10 kmVariable1.9 km/hScattered Clouds
7:50 AM-5 °C-7 °C86 %1007.1 hPa10 kmVariable3.7 km/hMostly Cloudy
8:00 AM-4.4 °C-7.8 °C70 %1010.2 hPaWSW (240°)1.9 km/h
8:20 AM-5 °C-7 °C86 %1007.1 hPa10 kmWest (260°)1.9 km/hMostly Cloudy
8:50 AM-5 °C-7 °C86 %1007.1 hPa10 kmVariable1.9 km/hMostly Cloudy
9:00 AM-5 °C-7.2 °C77 %1010.2 hPaWNW (290°)3.7 km/h
9:20 AM-4 °C-7 °C80 %1007.1 hPa10 kmVariable1.9 km/hMostly Cloudy
9:50 AM-2 °C-6 °C74 %1006.1 hPa10 kmVariable1.9 km/hMostly Cloudy
10:20 AM-2 °C-6 °C74 %1006.1 hPa10 kmVariable1.9 km/hScattered Clouds
10:50 AM-1 °C-6 °C69 %1006.1 hPa10 kmSW (220°)3.7 km/hPartly Cloudy
11:00 AM-1.7 °C-7.2 °C56 %1008.8 hPaWNW (300°)3.7 km/h
11:20 AM-1 °C-6 °C69 %1006.1 hPa10 kmVariable5.6 km/hPartly Cloudy
11:50 AM1 °C-6 °C60 %1005.1 hPa10 kmVariable1.9 km/hPartly Cloudy
12:00 PM-1.1 °C-6.7 °C54 %1008.1 hPaNE (40°)1.9 km/h
12:20 PM1 °C-6 °C60 %1005.1 hPa10 kmVariable1.9 km/hPartly Cloudy
12:50 PM0 °C-6 °C64 %1005.1 hPa10 kmEast (80°)5.6 km/hPartly Cloudy
1:00 PM0 °C-7.8 °C43 %1007.1 hPa49.9 kmENE (60°)5.6 km/hScattered Clouds
1:20 PM1 °C-7 °C56 %1004.1 hPa10 kmVariable1.9 km/hPartly Cloudy
1:50 PM1 °C-6 °C60 %1004.1 hPa10 kmVariable5.6 km/hPartly Cloudy
2:00 PM0 °C-8.3 °C41 %1006.1 hPaNNE (30°)5.6 km/h
2:20 PM0 °C-7 °C60 %1003 hPa10 kmVariable3.7 km/hPartly Cloudy
2:50 PM0 °C-6 °C64 %1003 hPa10 kmNNE (20°)7.4 km/hPartly Cloudy
3:00 PM-0.6 °C-6.7 °C50 %1005.8 hPaNNE (20°)9.3 km/h
3:20 PM0 °C-7 °C60 %1003 hPa10 kmVariable5.6 km/hPartly Cloudy
3:50 PM0 °C-7 °C60 %1004.1 hPa10 kmNNE (30°)9.3 km/hPartly Cloudy
4:20 PM0 °C-6 °C64 %1004.1 hPa10 kmNNE (20°)9.3 km/hPartly Cloudy
4:50 PM0 °C-7 °C60 %1004.1 hPa10 kmNE (40°)9.3 km/hPartly Cloudy
5:00 PM-0.6 °C-7.8 °C45 %1006.4 hPaNNE (30°)9.3 km/h
5:20 PM-1 °C-6 °C69 %1004.1 hPa10 kmNNE (20°)9.3 km/hPartly Cloudy
5:50 PM-2 °C-7 °C69 %1004.1 hPa10 kmNorth (360°)7.4 km/hPartly Cloudy
6:00 PM-2.8 °C-8.3 °C56 %1007.5 hPaNorth7.4 km/h
6:20 PM-3 °C-7 °C74 %1005.1 hPa10 kmNorth (350°)7.4 km/hPartly Cloudy
6:50 PM-3 °C-8 °C69 %1005.1 hPa10 kmNorth (360°)9.3 km/hPartly Cloudy
7:00 PM-3.9 °C-8.3 °C60 %1008.1 hPa45.1 kmNorth7.4 km/hScattered Clouds
7:20 PM-4 °C-8 °C74 %1005.1 hPa10 kmNorth (350°)5.6 km/hPartly Cloudy
7:50 PM-5 °C-8 °C80 %1005.1 hPa10 kmNorth (360°)5.6 km/hPartly Cloudy
8:00 PM-5 °C-9.4 °C61 %1008.8 hPaNorth (350°)5.6 km/h
8:20 PM-5 °C-9 °C74 %1005.1 hPa10 kmVariable5.6 km/hPartly Cloudy
8:50 PM-5 °C-9 °C74 %1005.1 hPa10 kmVariable3.7 km/hScattered Clouds
9:00 PM-5 °C-9.4 °C62 %1008.8 hPaWNW (300°)1.9 km/h
9:20 PM-6 °C-9 °C80 %1005.1 hPa10 kmCalmMostly Cloudy
9:50 PM-4 °C-8 °C74 %1005.1 hPa10 kmVariable3.7 km/hMostly Cloudy
10:20 PM-3 °C-8 °C69 %1005.1 hPa10 kmNE (50°)13 km/hScattered Clouds
10:50 PM-3 °C-8 °C69 %1006.1 hPa10 kmNorth (360°)7.4 km/hMostly Cloudy
11:00 PM-2.8 °C-9.4 °C47 %1008.8 hPaNNE (20°)7.4 km/h
11:20 PM-3 °C-7 °C74 %1006.1 hPa10 kmNNE (20°)5.6 km/hMostly Cloudy
11:50 PM-2 °C-5 °C80 %1006.1 hPa10 kmNE (40°)9.3 km/hMostly Cloudy
Hourly data recorded from LSGG, located 0 kilometers away from Geneva, Switzerland







STORIES FROM OUR PARTNERS